Volver al catálogo

ONEWEB-0023

ActivoComunicacionesPO
NORAD 45136·PAYLOAD·🇬🇧 United Kingdom

Lanzado Feb 6, 2020 desde Baikonur Cosmodrome

Loading…

Próximos Pases (próximas 24 horas)

TLE

ActualizadoSource: CelesTrak SupGP

Época: Sep 14, 2026, 15:52 UTC

1 45136C 20008F   26257.66126572  .00002923  00000+0  83834-2 0  2576
2 45136  87.8908  18.4526 0001778 107.5412 356.4538 13.10369219    10

Sigue ONEWEB-0023 en tiempo real con AllMySat

Download on the App Store